Weather History for KMIC - January, 2014

Change the Weather History Date:

Thursday, January 16, 2014

  Actual Average Record
Temperature  
Mean Temperature 20 °F -  
Max Temperature 35 °F 21 °F 37 °F (1999)
Min Temperature 6 °F 6 °F -20 °F (2009)
Degree Days  
Heating Degree Days 44    
Moisture  
Dew Point 12 °F    
Average Humidity 69    
Maximum Humidity 87    
Minimum Humidity 55    
Precipitation  
Precipitation 0.00 in - - ()
Sea Level Pressure  
Sea Level Pressure 29.60 in    
Wind  
Wind Speed 15 mph (WNW)    
Max Wind Speed 26 mph    
Max Gust Speed 36 mph    
Visibility 8 miles    
Events Snow    
Averages and records for this station are not official NWS values.
T = Trace of Precipitation, MM = Missing Value Source: NWS Daily Summary

Daily Weather History Graph

Daily Weather History Graph

Search for Another Location

Airport or City:

Trip Planner

Search our weather history database for the weather conditions in past years. The results will help you decide how hot, cold, wet, or windy it might be!

Date:

Astronomy

Jan. 16, 2014 Rise Set
Actual Time 7:47 AM CST 4:59 PM CST
Civil Twilight 7:14 AM CST 5:31 PM CST
Nautical Twilight 6:38 AM CST 6:08 PM CST
Astronomical Twilight 6:03 AM CST 6:43 PM CST
Moon 5:56 PM CST (1/16) 7:37 AM CST (1/16)
Length of Visible Light 10h 16m
Length of Day
9h 11m
Full, 100% of the Moon is Illuminated
Jan 16
Full
Jan 23
Last Quarter
Jan 30
New
Feb 6
First Quarter
Feb 14
Full

Hourly Weather History & Observations

Time (CST) Temp. Windchill Dew Point Humidity Pressure Visibility Wind Dir Wind Speed Gust Speed Precip Events Conditions
12:53 AM 30.9 °F 21.7 °F 23.0 °F 72% 29.40 in 10.0 mi WSW 11.5 mph - N/A   Overcast
1:53 AM 35.1 °F 24.8 °F 27.0 °F 72% 29.38 in 8.0 mi West 17.3 mph 24.2 mph 0.00 in Snow Light Snow
2:53 AM 34.0 °F 26.0 °F 28.9 °F 82% 29.38 in 9.0 mi West 10.4 mph 20.7 mph 0.00 in Snow Light Snow
3:11 AM 33.8 °F 25.8 °F 30.2 °F 87% 29.35 in 10.0 mi WSW 10.4 mph - 0.00 in   Overcast
3:53 AM 34.0 °F 26.0 °F 30.0 °F 85% 29.37 in 10.0 mi WSW 10.4 mph - 0.00 in   Overcast
4:53 AM 35.1 °F 27.4 °F 30.0 °F 82% 29.37 in 8.0 mi West 10.4 mph - 0.00 in Snow Light Snow
5:06 AM 35.6 °F 27.1 °F 30.2 °F 81% 29.33 in 7.0 mi West 12.7 mph - 0.00 in Snow Light Snow
5:53 AM 34.0 °F 25.0 °F 30.0 °F 85% 29.37 in 10.0 mi West 12.7 mph - 0.00 in   Overcast
6:31 AM 35.6 °F 28.0 °F 30.2 °F 81% 29.34 in 9.0 mi West 10.4 mph - N/A   Overcast
6:53 AM 35.1 °F 27.9 °F 30.0 °F 82% 29.38 in 10.0 mi West 9.2 mph - N/A   Overcast
7:53 AM 30.9 °F 18.4 °F 24.1 °F 76% 29.44 in 9.0 mi WNW 20.7 mph 27.6 mph 0.00 in   Overcast
8:28 AM 26.6 °F 11.7 °F 15.8 °F 64% 29.44 in 7.0 mi NW 24.2 mph 34.5 mph 0.00 in Snow Blowing Snow
8:53 AM 24.1 °F 9.4 °F 18.0 °F 77% 29.51 in 1.2 mi NW 20.7 mph 29.9 mph 0.00 in Snow Light Snow
9:06 AM 24.8 °F 9.3 °F 12.2 °F 59% 29.48 in 3.0 mi NW 24.2 mph 35.7 mph 0.00 in   Overcast
9:53 AM 21.9 °F 5.5 °F 10.0 °F 60% 29.55 in 6.0 mi NW 24.2 mph 32.2 mph 0.00 in   Haze
10:53 AM 19.9 °F 2.2 °F 6.1 °F 55% 29.56 in 8.0 mi WNW 26.5 mph 33.4 mph 0.00 in   Mostly Cloudy
11:53 AM 17.1 °F -0.3 °F 3.9 °F 56% 29.59 in 7.0 mi NW 21.9 mph 31.1 mph 0.00 in   Overcast
12:53 PM 12.9 °F -5.7 °F 3.0 °F 65% 29.62 in 9.0 mi NW 21.9 mph 29.9 mph 0.00 in   Overcast
1:53 PM 12.9 °F -4.4 °F -0.0 °F 56% 29.65 in 8.0 mi NW 18.4 mph 31.1 mph N/A   Overcast
2:53 PM 10.9 °F -5.9 °F 1.9 °F 67% 29.70 in 10.0 mi WNW 16.1 mph 26.5 mph N/A   Overcast
3:53 PM 10.0 °F -7.1 °F -2.9 °F 56% 29.75 in 9.0 mi NNW 16.1 mph 25.3 mph N/A   Overcast
4:53 PM 9.0 °F -8.5 °F -2.9 °F 59% 29.79 in 10.0 mi NW 16.1 mph - N/A   Overcast
5:53 PM 8.1 °F -9.6 °F -2.9 °F 61% 29.83 in 10.0 mi NW 16.1 mph 21.9 mph N/A   Overcast
6:53 PM 8.1 °F -10.2 °F -2.0 °F 64% 29.85 in 10.0 mi NW 17.3 mph - N/A   Overcast
7:53 PM 7.0 °F -10.4 °F -2.9 °F 64% 29.86 in 10.0 mi NW 15.0 mph 24.2 mph N/A   Overcast
8:53 PM 8.1 °F -11.2 °F -2.0 °F 64% 29.88 in 10.0 mi NW 19.6 mph 26.5 mph N/A   Overcast
9:32 PM 6.8 °F -10.7 °F -0.4 °F 72% 29.84 in 2.0 mi NW 15.0 mph 24.2 mph 0.00 in Snow Light Snow
9:48 PM 8.6 °F -8.9 °F -2.2 °F 62% 29.84 in 5.0 mi NW 16.1 mph - 0.00 in   Haze
9:53 PM 8.1 °F -9.0 °F -2.0 °F 64% 29.90 in 6.0 mi NW 15.0 mph - 0.00 in   Haze
10:53 PM 8.1 °F -9.6 °F -0.9 °F 67% 29.91 in 10.0 mi NW 16.1 mph 21.9 mph N/A   Overcast
11:53 PM 8.1 °F -9.0 °F -0.9 °F 67% 29.93 in 9.0 mi NNW 15.0 mph 23.0 mph N/A   Overcast